• în România
  • Lista ţărilor
  • Pe 7 zile
  • Temperatura apei
  • Hartă satelitară
  • Meteo pe hartă
  • Widget-uri
  • user-avatar
    Intrare

    Meteo pe oră la Ganja

    Astăzi, 30 Aprilie, Duminică

    Timp Temperatura Precipitaţii Vânt Presiune Umiditate
    00:00 +12°C° 0 mm 1 m/s 726 mmHg 81%
    01:00 +12°C° 0 mm 1 m/s 726 mmHg 83%
    02:00 +10°C° 0 mm 0 m/s 726 mmHg 85%
    03:00 +10°C° 0 mm 0 m/s 726 mmHg 87%
    04:00 +10°C° 0 mm 0 m/s 726 mmHg 84%
    05:00 +12°C° 0 mm 1 m/s 726 mmHg 82%
    06:00 +13°C° 0 mm 1 m/s 726 mmHg 79%
    07:00 +15°C° 0 mm 2 m/s 726 mmHg 71%
    08:00 +17°C° 0 mm 2 m/s 726 mmHg 63%
    09:00 +19°C° 0 mm 2 m/s 726 mmHg 54%
    10:00 +20°C° 0 mm 2 m/s 726 mmHg 51%
    11:00 +23°C° 0 mm 2 m/s 726 mmHg 47%
    12:00 +24°C° 0 mm 2 m/s 726 mmHg 43%
    13:00 +24°C° 0,3 mm 1 m/s 725 mmHg 43%
    14:00 +25°C° 0,3 mm 1 m/s 725 mmHg 43%
    15:00 +25°C° 0,3 mm 1 m/s 725 mmHg 43%
    16:00 +24°C° 0,2 mm 1 m/s 725 mmHg 47%
    17:00 +23°C° 0,2 mm 1 m/s 725 mmHg 51%
    18:00 +23°C° 0,2 mm 1 m/s 725 mmHg 55%
    19:00 +21°C° 0,1 mm 1 m/s 725 mmHg 57%
    20:00 +19°C° 0,1 mm 1 m/s 725 mmHg 58%
    21:00 +16°C° 0,1 mm 1 m/s 725 mmHg 60%
    22:00 +15°C° 0,2 mm 1 m/s 725 mmHg 60%
    23:00 +15°C° 0,2 mm 1 m/s 725 mmHg 60%

    Mâine, 1 Mai, Luni

    Timp Temperatura Precipitaţii Vânt Presiune Umiditate
    00:00 +14°C° 0,2 mm 1 m/s 725 mmHg 59%
    01:00 +14°C° 0 mm 1 m/s 725 mmHg 59%
    02:00 +14°C° 0 mm 1 m/s 725 mmHg 60%
    03:00 +13°C° 0 mm 1 m/s 725 mmHg 60%
    04:00 +14°C° 0 mm 2 m/s 725 mmHg 59%
    05:00 +15°C° 0 mm 2 m/s 725 mmHg 57%
    06:00 +15°C° 0 mm 2 m/s 726 mmHg 56%
    07:00 +18°C° 0 mm 2 m/s 726 mmHg 49%
    08:00 +20°C° 0 mm 2 m/s 726 mmHg 43%
    09:00 +23°C° 0 mm 2 m/s 726 mmHg 36%
    10:00 +25°C° 0 mm 2 m/s 726 mmHg 34%
    11:00 +26°C° 0 mm 2 m/s 726 mmHg 32%
    12:00 +27°C° 0 mm 1 m/s 725 mmHg 30%
    13:00 +27°C° 0 mm 1 m/s 725 mmHg 31%
    14:00 +28°C° 0 mm 1 m/s 725 mmHg 31%
    15:00 +28°C° 0 mm 1 m/s 724 mmHg 32%
    16:00 +27°C° 0 mm 1 m/s 724 mmHg 37%
    17:00 +26°C° 0 mm 1 m/s 724 mmHg 41%
    18:00 +25°C° 0 mm 1 m/s 725 mmHg 46%
    19:00 +23°C° 0 mm 1 m/s 725 mmHg 49%
    20:00 +21°C° 0 mm 1 m/s 725 mmHg 51%
    21:00 +18°C° 0 mm 2 m/s 726 mmHg 54%
    22:00 +19°C° 0 mm 1 m/s 726 mmHg 55%
    23:00 +18°C° 0 mm 1 m/s 726 mmHg 56%

    Poimâine, 2 Mai, Marţi

    Timp Temperatura Precipitaţii Vânt Presiune Umiditate
    00:00 +16°C° 0 mm 1 m/s 726 mmHg 57%
    01:00 +16°C° 0 mm 1 m/s 726 mmHg 58%
    02:00 +16°C° 0 mm 1 m/s 725 mmHg 60%
    03:00 +15°C° 0 mm 0 m/s 725 mmHg 62%
    04:00 +15°C° 0 mm 0 m/s 725 mmHg 61%
    05:00 +16°C° 0 mm 0 m/s 725 mmHg 60%
    06:00 +16°C° 0 mm 0 m/s 726 mmHg 59%
    07:00 +20°C° 0 mm 1 m/s 726 mmHg 53%
    08:00 +22°C° 0 mm 1 m/s 726 mmHg 48%
    09:00 +24°C° 0 mm 1 m/s 726 mmHg 42%
    10:00 +24°C° 0 mm 1 m/s 726 mmHg 41%
    11:00 +25°C° 0 mm 1 m/s 725 mmHg 40%
    12:00 +26°C° 0 mm 1 m/s 725 mmHg 40%
    13:00 +26°C° 0,2 mm 2 m/s 725 mmHg 40%
    14:00 +26°C° 0,2 mm 2 m/s 725 mmHg 40%
    15:00 +27°C° 0,2 mm 2 m/s 724 mmHg 39%
    16:00 +26°C° 0,1 mm 1 m/s 724 mmHg 44%
    17:00 +25°C° 0,1 mm 1 m/s 724 mmHg 48%
    18:00 +24°C° 0,1 mm 1 m/s 724 mmHg 53%
    19:00 +23°C° 0,1 mm 1 m/s 724 mmHg 54%
    20:00 +21°C° 0,1 mm 1 m/s 724 mmHg 55%
    21:00 +20°C° 0,1 mm 1 m/s 725 mmHg 56%
    22:00 +19°C° 0 mm 1 m/s 724 mmHg 56%
    23:00 +19°C° 0 mm 1 m/s 724 mmHg 57%

    3 Mai, Miercuri

    Timp Temperatura Precipitaţii Vânt Presiune Umiditate
    00:00 +19°C° 0 mm 1 m/s 724 mmHg 57%
    01:00 +18°C° 0,1 mm 1 m/s 724 mmHg 58%
    02:00 +18°C° 0,1 mm 1 m/s 724 mmHg 59%
    03:00 +18°C° 0,1 mm 1 m/s 723 mmHg 61%
    04:00 +18°C° 0 mm 1 m/s 723 mmHg 61%
    05:00 +18°C° 0 mm 1 m/s 723 mmHg 62%
    06:00 +17°C° 0 mm 2 m/s 723 mmHg 62%
    07:00 +19°C° 0 mm 2 m/s 723 mmHg 57%
    08:00 +20°C° 0 mm 2 m/s 723 mmHg 52%
    09:00 +22°C° 0 mm 3 m/s 723 mmHg 47%
    10:00 +24°C° 0,2 mm 2 m/s 723 mmHg 45%
    11:00 +25°C° 0,2 mm 2 m/s 723 mmHg 43%
    12:00 +26°C° 0,2 mm 2 m/s 723 mmHg 41%
    13:00 +26°C° 0,7 mm 2 m/s 722 mmHg 42%
    14:00 +26°C° 0,7 mm 2 m/s 722 mmHg 44%
    15:00 +26°C° 0,7 mm 2 m/s 722 mmHg 46%
    16:00 +25°C° 0,1 mm 2 m/s 722 mmHg 49%
    17:00 +25°C° 0,1 mm 2 m/s 722 mmHg 52%
    18:00 +24°C° 0,1 mm 1 m/s 722 mmHg 55%
    19:00 +22°C° 0,3 mm 1 m/s 722 mmHg 58%
    20:00 +20°C° 0,3 mm 1 m/s 722 mmHg 61%
    21:00 +19°C° 0,3 mm 1 m/s 722 mmHg 65%
    22:00 +18°C° 0,1 mm 1 m/s 722 mmHg 64%
    23:00 +17°C° 0,1 mm 2 m/s 722 mmHg 63%

    4 Mai, Joi

    Timp Temperatura Precipitaţii Vânt Presiune Umiditate
    00:00 +17°C° 0,1 mm 2 m/s 722 mmHg 63%
    01:00 +16°C° 0 mm 2 m/s 722 mmHg 64%
    02:00 +16°C° 0 mm 2 m/s 722 mmHg 65%
    03:00 +15°C° 0 mm 2 m/s 722 mmHg 66%
    04:00 +16°C° 0 mm 2 m/s 722 mmHg 65%
    05:00 +16°C° 0 mm 3 m/s 722 mmHg 65%
    06:00 +17°C° 0 mm 3 m/s 722 mmHg 64%
    07:00 +19°C° 0 mm 3 m/s 723 mmHg 58%
    08:00 +21°C° 0 mm 3 m/s 723 mmHg 52%
    09:00 +24°C° 0 mm 3 m/s 723 mmHg 46%
    10:00 +25°C° 0,2 mm 3 m/s 722 mmHg 45%
    11:00 +26°C° 0,2 mm 2 m/s 722 mmHg 43%
    12:00 +27°C° 0,2 mm 2 m/s 722 mmHg 42%
    13:00 +27°C° 0,5 mm 2 m/s 722 mmHg 42%
    14:00 +27°C° 0,5 mm 1 m/s 721 mmHg 42%
    15:00 +27°C° 0,5 mm 1 m/s 721 mmHg 42%
    16:00 +26°C° 0,3 mm 1 m/s 722 mmHg 46%
    17:00 +25°C° 0,3 mm 1 m/s 722 mmHg 50%
    18:00 +24°C° 0,3 mm 1 m/s 722 mmHg 54%
    19:00 +23°C° 0,1 mm 1 m/s 723 mmHg 57%
    20:00 +20°C° 0,1 mm 2 m/s 723 mmHg 59%
    21:00 +18°C° 0,1 mm 2 m/s 723 mmHg 61%
    22:00 +18°C° 0 mm 1 m/s 723 mmHg 65%
    23:00 +16°C° 0 mm 1 m/s 723 mmHg 68%

    5 Mai, Vineri

    Timp Temperatura Precipitaţii Vânt Presiune Umiditate
    00:00 +16°C° 0 mm 1 m/s 723 mmHg 71%
    01:00 +15°C° 0 mm 1 m/s 723 mmHg 72%
    02:00 +15°C° 0 mm 1 m/s 723 mmHg 73%
    03:00 +14°C° 0 mm 1 m/s 723 mmHg 74%
    04:00 +15°C° 0 mm 1 m/s 724 mmHg 71%
    05:00 +16°C° 0 mm 1 m/s 724 mmHg 68%
    06:00 +18°C° 0 mm 1 m/s 724 mmHg 65%
    07:00 +20°C° 0 mm 1 m/s 724 mmHg 59%
    08:00 +22°C° 0 mm 1 m/s 724 mmHg 53%
    09:00 +23°C° 0 mm 1 m/s 724 mmHg 48%
    10:00 +24°C° 0 mm 1 m/s 724 mmHg 46%
    11:00 +25°C° 0 mm 1 m/s 723 mmHg 44%
    12:00 +26°C° 0 mm 1 m/s 723 mmHg 42%
    13:00 +27°C° 0,4 mm 2 m/s 722 mmHg 43%
    14:00 +27°C° 0,4 mm 2 m/s 722 mmHg 43%
    15:00 +27°C° 0,4 mm 2 m/s 722 mmHg 44%
    16:00 +26°C° 0,5 mm 2 m/s 722 mmHg 48%
    17:00 +25°C° 0,5 mm 2 m/s 722 mmHg 53%
    18:00 +24°C° 0,5 mm 2 m/s 722 mmHg 57%
    19:00 +23°C° 0,3 mm 2 m/s 722 mmHg 60%
    20:00 +21°C° 0,3 mm 2 m/s 722 mmHg 64%
    21:00 +20°C° 0,3 mm 2 m/s 723 mmHg 67%
    22:00 +19°C° 0,6 mm 2 m/s 723 mmHg 70%
    23:00 +18°C° 0,6 mm 2 m/s 723 mmHg 73%
    Arată mai mult